Date String (YYYY-MM-DD hh:mm:ss) UTC,Instrument flags,absolute air pressure of the measurement (hPa),sample flow rate (lpm),inlet stack bypass flow (lpm),air temperature of the measurement (°C),ambient temperature measured by the external sensor (°C),aerosol sample conditioner tube jacket temperature (°C),OPC LED temperature (°C),internal box temperature (°C),relative humidity of the measurement (%),span deviation,mass concentration of particles derived from Lorenz-Mie calculation of OPC scattering (μg/m³),mass concentration of particles derived from Lorenz-Mie calculation of OPC scattering (μg/m³),mass concentration of particles derived from Lorenz-Mie calculation of OPC scattering (μg/m³)
DateTimeUTC,F1_M11,P_M11,Q1_M11,Q2_M11,T1_M11,T2_M11,T3_M11,T4_M11,T5_M11,U1_M11,ZSPAN_M11,X0_M11,X2_M11,X1_M11
2023-09-12 05:00:00,SystemResetWarning,0836.1,5.00,000.00,028.3,026.9,000.0,036.7,029.9,28.8,0000.6,0008.38,0005.14,0004.81
2023-09-12 05:01:00,SystemResetWarning,0836.2,5.00,000.00,028.3,027.0,000.0,036.7,030.0,28.5,0000.6,0008.36,0005.14,0004.82
2023-09-12 05:02:00,SystemResetWarning,0836.2,5.00,000.00,028.4,027.1,000.0,036.7,030.0,29.0,0000.5,0008.35,0005.14,0004.84
2023-09-12 05:03:00,SystemResetWarning,0836.2,5.00,000.00,028.4,027.1,000.0,036.7,030.0,29.3,0000.8,0008.31,0005.15,0004.84
2023-09-12 05:04:00,SystemResetWarning,0836.2,5.00,000.00,028.4,027.2,000.0,036.7,030.1,29.4,0001.0,0009.07,0005.13,0004.84
2023-09-12 05:05:00,SystemResetWarning,0836.2,5.00,000.00,028.4,027.3,000.0,036.7,030.1,29.5,0000.6,0009.63,0005.14,0004.85
2023-09-12 05:06:00,SystemResetWarning,0836.2,5.00,000.00,028.5,027.3,000.0,036.8,030.2,29.5,-000.0,0009.69,0005.18,0004.87
2023-09-12 05:07:00,SystemResetWarning,0836.2,5.00,000.00,028.5,027.3,000.0,036.8,030.2,29.5,-000.2,0009.92,0005.19,0004.88
2023-09-12 05:08:00,SystemResetWarning,0836.2,5.00,000.00,028.5,027.4,000.0,036.8,030.2,29.6,-000.2,0009.84,0005.20,0004.90
2023-09-12 05:09:00,SystemResetWarning,0836.2,5.00,000.00,028.5,027.4,000.0,036.8,030.2,29.8,-000.3,0009.78,0005.22,0004.90
2023-09-12 05:10:00,SystemResetWarning,0836.2,4.99,000.00,028.6,027.5,000.0,036.8,030.3,29.8,0000.0,0009.61,0005.22,0004.91
2023-09-12 05:11:00,SystemResetWarning,0836.2,4.99,000.00,028.6,027.5,000.0,036.8,030.3,29.9,-000.1,0009.70,0005.23,0004.93
2023-09-12 05:12:00,SystemResetWarning,0836.2,4.99,000.00,028.6,027.5,000.0,036.9,030.3,29.9,-000.0,0009.70,0005.21,0004.92
2023-09-12 05:13:00,SystemResetWarning,0836.2,5.00,000.00,028.6,027.5,000.0,036.9,030.3,29.8,-000.0,0009.69,0005.20,0004.92
2023-09-12 05:14:00,SystemResetWarning,0836.2,5.01,000.00,028.7,027.6,000.0,036.9,030.4,29.6,-000.1,0009.72,0005.21,0004.93
2023-09-12 05:15:00,SystemResetWarning,0836.2,5.00,000.00,028.7,027.6,000.0,036.9,030.3,29.4,-000.2,0009.15,0005.21,0004.94
2023-09-12 05:16:00,SystemResetWarning,0836.2,5.00,000.00,028.7,027.6,000.0,036.9,030.4,29.4,-000.0,0008.36,0005.20,0004.93
2023-09-12 05:17:00,SystemResetWarning,0836.2,5.00,000.00,028.7,027.6,000.0,036.9,030.4,29.4,-000.0,0008.43,0005.20,0004.93
2023-09-12 05:18:00,SystemResetWarning,0836.2,5.00,000.00,028.7,027.6,000.0,037.0,030.4,29.3,-000.2,0008.21,0005.18,0004.92
2023-09-12 05:19:00,SystemResetWarning,0836.2,5.00,000.00,028.8,027.6,000.0,037.0,030.4,29.3,0000.1,0008.08,0005.16,0004.91
2023-09-12 05:20:00,SystemResetWarning,0836.2,5.00,000.00,028.8,027.6,000.0,037.0,030.4,29.2,0000.4,0008.01,0005.13,0004.90
2023-09-12 05:21:00,SystemResetWarning,0836.2,4.99,000.00,028.8,027.6,000.0,037.0,030.4,29.2,0000.4,0008.00,0005.11,0004.90
2023-09-12 05:22:00,SystemResetWarning,0836.2,5.01,000.00,028.8,027.6,000.0,037.1,030.4,29.2,0000.7,0007.89,0005.08,0004.88
2023-09-12 05:23:00,SystemResetWarning,0836.2,5.00,000.00,028.8,027.6,000.0,037.1,030.4,29.1,0000.9,0007.99,0005.11,0004.88
2023-09-12 05:24:00,SystemResetWarning,0836.2,5.01,000.00,028.8,027.6,000.0,037.1,030.4,29.1,0000.9,0008.08,0005.14,0004.88
2023-09-12 05:25:00,SystemResetWarning,0836.2,5.00,000.00,028.9,027.6,000.0,037.1,030.5,29.0,0000.6,0008.06,0005.15,0004.87
2023-09-12 05:26:00,SystemResetWarning,0836.2,5.00,000.00,028.9,027.6,000.0,037.1,030.4,29.0,0000.2,0008.03,0005.13,0004.86
2023-09-12 05:27:00,SystemResetWarning,0836.2,5.01,000.00,028.9,027.6,000.0,037.1,030.5,28.9,-000.1,0008.05,0005.12,0004.86
2023-09-12 05:28:00,SystemResetWarning,0836.2,5.00,000.00,028.9,027.6,000.0,037.2,030.5,28.9,0000.0,0008.02,0005.12,0004.87
2023-09-12 05:29:00,SystemResetWarning,0836.2,4.99,000.00,028.9,027.6,000.0,037.2,030.5,28.8,0000.4,0007.96,0005.12,0004.87
2023-09-12 05:30:00,SystemResetWarning,0836.2,5.00,000.00,028.9,027.6,000.0,037.2,030.5,28.8,0000.8,0007.97,0005.13,0004.87
2023-09-12 05:31:00,SystemResetWarning,0836.2,5.00,000.00,028.9,027.6,000.0,037.2,030.5,28.8,0000.6,0008.01,0005.13,0004.86
2023-09-12 05:32:00,SystemResetWarning,0836.2,5.00,000.00,028.9,027.6,000.0,037.2,030.5,28.7,0000.7,0008.08,0005.15,0004.86
2023-09-12 05:33:00,SystemResetWarning,0836.2,5.00,000.00,029.0,027.6,000.0,037.2,030.5,28.7,0000.1,0008.64,0005.23,0004.91
2023-09-12 05:34:00,SystemResetWarning,0836.2,4.99,000.00,028.9,026.1,000.0,037.2,030.3,28.8,-000.3,0009.19,0005.31,0004.97
2023-09-12 05:35:00,SystemResetWarning,0836.2,5.00,000.00,028.8,024.7,000.0,037.1,030.0,28.8,-000.4,0009.33,0005.37,0005.04
2023-09-12 05:36:00,SystemResetWarning,0836.2,5.01,000.00,028.7,024.4,000.0,037.0,029.8,29.0,-000.7,0009.43,0005.47,0005.13
2023-09-12 05:37:00,SystemResetWarning,0836.2,5.02,000.00,028.5,024.6,000.0,037.0,029.6,29.3,-000.5,0009.66,0005.61,0005.23
2023-09-12 05:38:00,SystemResetWarning,0836.1,4.99,000.00,028.4,024.9,000.0,037.0,029.5,29.5,0000.1,0009.77,0005.72,0005.30
2023-09-12 05:39:00,SystemResetWarning,0836.1,5.00,000.00,028.4,025.3,000.0,037.0,029.6,29.5,-000.3,0009.93,0005.82,0005.36
2023-09-12 05:40:00,SystemResetWarning,0836.1,5.00,000.00,028.4,025.6,000.0,036.9,029.6,29.5,-000.9,0010.55,0005.90,0005.42
2023-09-12 05:41:00,SystemResetWarning,0836.1,5.01,000.00,028.3,025.9,000.0,036.9,029.7,29.5,-001.7,0010.87,0005.95,0005.48
2023-09-12 05:42:00,SystemResetWarning,0836.1,5.01,000.00,028.3,026.1,000.0,036.9,029.7,29.5,-002.1,0011.13,0006.06,0005.56
2023-09-12 05:43:00,SystemResetWarning,0836.1,5.00,000.00,028.3,026.3,000.0,036.9,029.7,29.5,-001.9,0012.19,0006.14,0005.62
2023-09-12 05:44:00,SystemResetWarning,0836.1,5.00,000.00,028.3,026.5,000.0,036.9,029.8,29.5,-001.8,0012.22,0006.21,0005.65
2023-09-12 05:45:00,SystemResetWarning,0836.1,5.00,000.00,028.3,026.6,000.0,036.8,029.8,29.5,-001.5,0011.87,0006.22,0005.65
2023-09-12 05:46:00,SystemResetWarning,0836.1,5.00,000.00,028.3,026.7,000.0,036.8,029.8,29.5,-001.4,0011.82,0006.24,0005.65
2023-09-12 05:47:00,SystemResetWarning,0836.1,5.00,000.00,028.3,026.8,000.0,036.8,029.8,29.6,-001.0,0011.81,0006.20,0005.61
2023-09-12 05:48:00,SystemResetWarning,0836.2,4.99,000.00,028.3,026.9,000.0,036.8,029.9,29.6,-000.9,0011.86,0006.18,0005.58
2023-09-12 05:49:00,SystemResetWarning,0836.2,5.00,000.00,028.4,026.9,000.0,036.8,029.9,29.6,-001.3,0011.97,0006.14,0005.55
2023-09-12 05:50:00,SystemResetWarning,0836.2,5.01,000.00,028.4,027.0,000.0,036.8,029.9,29.5,-001.1,0012.45,0006.19,0005.55
2023-09-12 05:51:00,SystemResetWarning,0836.2,5.01,000.00,028.4,027.0,000.0,036.8,029.9,29.4,-001.2,0012.44,0006.20,0005.52
2023-09-12 05:52:00,SystemResetWarning,0836.1,4.99,000.00,028.4,027.1,000.0,036.8,030.0,29.3,-000.9,0011.97,0006.23,0005.50
2023-09-12 05:53:00,SystemResetWarning,0836.2,4.99,000.00,028.4,027.1,000.0,036.8,030.0,29.3,-000.5,0011.94,0006.23,0005.49
2023-09-12 05:54:00,SystemResetWarning,0836.2,5.01,000.00,028.5,027.1,000.0,036.8,030.0,29.2,-000.6,0011.25,0006.25,0005.47
2023-09-12 05:55:00,SystemResetWarning,0836.2,5.01,000.00,028.5,027.1,000.0,036.8,030.1,29.1,-000.7,0010.93,0006.22,0005.46
2023-09-12 05:56:00,SystemResetWarning,0836.1,5.00,000.00,028.5,027.1,000.0,036.8,030.1,29.1,-000.5,0011.03,0006.23,0005.45
2023-09-12 05:57:00,SystemResetWarning,0836.1,4.99,000.00,028.5,027.2,000.0,036.9,030.1,29.0,-001.4,0011.97,0006.21,0005.42
2023-09-12 05:58:00,SystemResetWarning,0836.1,4.99,000.00,028.5,027.2,000.0,036.9,030.1,28.9,-001.5,0012.22,0006.20,0005.41
2023-09-12 05:59:00,SystemResetWarning,0836.1,4.99,000.00,028.5,027.2,000.0,036.9,030.1,28.8,-001.8,0012.33,0006.18,0005.39
